FW6647 Weather Reports


time (UTC)temp
F
wind
direction
speed
knots
gust
knots
rain 1hr
in
rain 24hr
in
rain mn
in
humidity
%
barometer
mb
20260506044524 50 359 0.9 4.3 0.05 0.99 0.04 95 1009.9
20260506043017 50 13 0.9 2.6 0.07 0.98 0.03 95 1009.6
20260506041525 50 22 0.0 3.5 0.07 0.97 0.02 95 1009.2
20260506040011 50 359 0.0 3.5 0.07 0.96 0.01 95 1009.2
20260506034510 50 359 0.9 2.6 0.06 0.94 0.94 95 1009.5
20260506033009 50 23 0.9 3.5 0.04 0.91 0.91 95 1009.6
20260506031513 50 359 0.0 1.7 0.03 0.90 0.90 95 1009.5
20260506030009 50 359 0.9 2.6 0.04 0.89 0.89 95 1009.4
20260506024507 50 168 0.0 0.0 0.05 0.88 0.88 95 1009.3
20260506023005 50 179 0.0 0.0 0.06 0.87 0.87 95 1009.2
20260506021506 50 187 0.0 0.0 0.08 0.87 0.87 95 1009.1
20260506020002 50 359 0.0 0.0 0.09 0.85 0.85 95 1009.2
20260506014500 50 191 0.0 0.0 0.12 0.83 0.83 95 1009.1
20260506013000 50 190 0.0 0.0 0.14 0.81 0.81 95 1009.2
20260506011602 50 192 0.0 0.0 0.14 0.79 0.79 95 1009.3
20260506010105 50 211 0.0 0.0 0.16 0.77 0.77 95 1009.4
20260506004600 50 359 0.0 1.7 0.17 0.75 0.72 94 1010.0
20260506003058 50 204 0.0 1.7 0.18 0.70 0.67 94 1009.2
20260506001617 50 201 0.0 0.9 0.22 0.68 0.65 94 1009.4
20260506000055 50 210 0.0 0.9 0.21 0.64 0.61 94 1009.5
20260505234556 50 209 0.0 0.9 0.20 0.57 0.55 94 1009.8
20260505233057 50 209 0.0 0.0 0.19 0.51 0.48 94 1009.4
20260505231556 50 211 0.0 0.9 0.18 0.46 0.43 94 1009.4
20260505224550 51 209 0.0 1.7 0.17 0.38 0.35 93 1009.2
20260505223056 51 197 0.0 2.6 0.15 0.31 0.28 93 1009.2
20260505221551 51 226 0.0 4.3 0.15 0.28 0.25 93 1009.0
20260505220047 51 285 0.0 2.6 0.16 0.25 0.22 93 1009.1
20260505214557 52 359 0.9 3.5 0.14 0.21 0.18 92 1009.2
20260505213053 52 337 0.9 3.5 0.10 0.15 0.12 92 1008.9
20260505211538 53 251 1.7 5.2 0.09 0.13 0.10 91 1008.8
20260505210033 54 359 2.6 4.3 0.06 0.09 0.06 90 1008.7
20260505204533 55 256 1.7 6.1 0.04 0.07 0.04 89 1008.6
20260505203027 56 247 2.6 7.0 0.02 0.05 0.02 87 1008.5
20260505201540 57 243 1.7 5.2 0.01 0.04 0.01 85 1008.3
20260505200019 58 359 2.6 7.0 0.00 0.03 0.00 82 1008.0
20260505194518 58 249 0.9 7.0 0.00 0.03 0.00 81 1007.9
20260505193037 58 258 2.6 7.0 0.00 0.03 0.00 81 1008.1
20260505191517 58 245 1.7 4.3 0.00 0.03 0.00 81 1008.1
20260505190028 59 260 0.9 5.2 0.00 0.03 0.00 81 1008.0
20260505184519 58 359 1.7 10.4 0.00 0.03 0.00 81 1008.0
20260505183017 59 359 1.7 7.8 0.00 0.03 0.00 80 1008.3
20260505181515 59 251 4.3 8.7 0.00 0.03 0.00 78 1008.0
20260505180006 60 257 4.3 9.6 0.00 0.03 0.00 77 1007.8
20260505174504 61 276 2.6 8.7 0.00 0.03 0.00 74 1007.4
20260505173002 63 253 5.2 11.3 0.00 0.03 0.00 71 1007.1
20260505171501 63 237 4.3 10.4 0.00 0.03 0.00 73 1006.9
20260505170109 61 253 3.5 7.8 0.00 0.03 0.00 74 1006.9
20260505164558 62 251 3.5 7.8 0.00 0.03 0.00 70 1006.9
20260505163107 64 285 4.3 10.4 0.00 0.03 0.00 66 1006.8
20260505161557 66 252 1.7 4.3 0.00 0.03 0.00 67 1006.1
20260505153107 65 228 1.7 12.2 0.00 0.03 0.00 67 1006.8
20260505151552 66 232 4.3 9.6 0.00 0.03 0.00 66 1006.3
20260505150110 66 231 3.5 10.4 0.00 0.03 0.00 65 1006.3
20260505124537 66 202 2.6 10.4 0.00 0.03 0.00 66 1004.7
20260505123059 65 223 2.6 7.8 0.00 0.03 0.00 66 1004.6
20260505121535 65 179 2.6 10.4 0.00 0.03 0.00 66 1004.5
20260505120043 65 248 5.2 11.3 0.00 0.03 0.00 66 1004.4
20260505114541 65 230 3.5 10.4 0.00 0.03 0.00 67 1004.3
20260505113028 65 238 6.1 13.0 0.00 0.03 0.00 67 1004.1
20260505111525 64 220 3.5 13.0 0.00 0.03 0.00 67 1003.9
20260505101519 64 184 1.7 12.2 0.00 0.03 0.00 66 1003.0
20260505100021 64 249 4.3 12.2 0.00 0.03 0.00 66 1003.0
20260505094516 64 199 4.3 13.9 0.00 0.03 0.00 66 1002.9
20260505093016 64 182 4.3 13.9 0.00 0.03 0.00 67 1002.8
20260505091522 64 173 3.5 10.4 0.00 0.03 0.00 67 1002.7
20260505090021 64 266 2.6 13.0 0.00 0.03 0.00 67 1003.0
20260505084519 64 195 1.7 9.6 0.00 0.03 0.00 67 1002.9
20260505083014 64 250 4.3 8.7 0.00 0.03 0.00 67 1002.4
20260505081513 65 185 2.6 13.0 0.00 0.03 0.00 66 1002.4
20260505080011 65 244 2.6 12.2 0.00 0.03 0.00 66 1002.5
20260505074511 65 144 2.6 8.7 0.00 0.03 0.00 66 1002.5
20260505073015 65 194 3.5 10.4 0.00 0.03 0.00 66 1002.7
20260505071512 65 359 2.6 12.2 0.00 0.03 0.00 66 1002.5
20260505070016 65 201 3.5 7.8 0.00 0.03 0.00 66 1002.5
20260505064508 65 199 4.3 7.8 0.00 0.03 0.00 66 1002.9
20260505063007 65 359 3.5 10.4 0.00 0.03 0.00 65 1003.3
20260505061510 66 197 3.5 11.3 0.00 0.03 0.00 64 1003.2
20260505060009 65 243 4.3 12.2 0.00 0.03 0.00 65 1003.4